History for Ft Lauderdale, FL

Tuesday, November 13, 2012 — View Current Conditions

Jump to Data:

Date:
Airport Code:
Recently Viewed Airport Codes: KFLL
Daily Summary
  Actual Average Record
Temperature
Mean Temperature 78°F 76°F  
Max Temperature 81°F 82°F 87°F (1948)
Min Temperature 74°F 70°F 42°F (1932)
Degree Days
Heating Degree Days 0 0  
Month to date heating degree days 2 0  
Since 1 July heating degree days 2 0  
Cooling Degree Days 13 11  
Month to date cooling degree days 97 154  
Year to date cooling degree days 4254 4348  
Growing Degree Days 28 (Base 50)    
Moisture
Dew Point 64°F    
Average Humidity 64    
Maximum Humidity 74    
Minimum Humidity 54    
Precipitation
Precipitation 0.00 in 0.10 in 2.39 in (1954)
Month to date precipitation 0.15 1.71  
Year to date precipitation 59.44 58.19  
Snow
Snow 0.00 in in in ()
Month to date snowfall 0.0  
Since 1 July snowfall 0.0  
Since 1 September snowfall 0.0  
Snow Depth 0.00 in    
Sea Level Pressure
Sea Level Pressure 30.09 in    
Wind
Wind Speed 11 mph (ENE)    
Max Wind Speed 16 mph    
Max Gust Speed 21 mph    
Visibility 10 miles    
Events      
T = Trace of Precipitation, MM = Missing Value Source: NWS Daily Summary

Show full METARS

(help) - Comma Delimited File

Hourly Observations

Time(EST) Temperature Dew Point Humidity Sea Level Pressure Visibility Wind Direction Wind Speed Gust Speed Precipitation Events Conditions
12:53 AM 75.9°F 66.0°F 71% 30.11 in 10.0 miles East 12.7 mph 19.6 mph N/A   Scattered Clouds
1:53 AM 75.9°F 64.9°F 69% 30.08 in 10.0 miles East 9.2 mph - N/A   Scattered Clouds
2:53 AM 75.9°F 64.9°F 69% 30.07 in 10.0 miles East 9.2 mph - N/A   Scattered Clouds
3:53 AM 75.0°F 64.9°F 71% 30.07 in 10.0 miles East 10.4 mph - N/A   Scattered Clouds
4:53 AM 75.0°F 66.0°F 73% 30.08 in 10.0 miles ENE 8.1 mph - N/A   Scattered Clouds
5:53 AM 75.0°F 64.0°F 69% 30.09 in 10.0 miles ENE 9.2 mph - N/A   Partly Cloudy
6:53 AM 75.0°F 64.9°F 71% 30.10 in 10.0 miles ENE 5.8 mph - N/A   Partly Cloudy
7:53 AM 77.0°F 64.0°F 64% 30.12 in 10.0 miles ENE 11.5 mph - N/A   Scattered Clouds
8:53 AM 78.1°F 64.0°F 62% 30.14 in 10.0 miles East 12.7 mph - N/A   Scattered Clouds
9:53 AM 78.1°F 64.0°F 62% 30.14 in 10.0 miles ENE 12.7 mph - N/A   Partly Cloudy
10:53 AM 79.0°F 64.0°F 60% 30.13 in 10.0 miles ENE 12.7 mph - N/A   Partly Cloudy
11:53 AM 79.0°F 63.0°F 58% 30.10 in 10.0 miles ENE 11.5 mph - N/A   Partly Cloudy
12:53 PM 80.1°F 63.0°F 56% 30.08 in 10.0 miles East 13.8 mph - N/A   Partly Cloudy
1:53 PM 79.0°F 64.0°F 60% 30.06 in 10.0 miles ENE 12.7 mph - N/A   Partly Cloudy
2:53 PM 78.1°F 64.9°F 64% 30.05 in 10.0 miles NE 13.8 mph - N/A   Partly Cloudy
3:53 PM 78.1°F 64.0°F 62% 30.05 in 10.0 miles ENE 13.8 mph - N/A   Scattered Clouds
4:53 PM 78.1°F 64.0°F 62% 30.06 in 10.0 miles ENE 9.2 mph - N/A   Scattered Clouds
5:53 PM 77.0°F 64.0°F 64% 30.06 in 10.0 miles NE 10.4 mph - N/A   Scattered Clouds
6:53 PM 75.9°F 64.9°F 69% 30.06 in 10.0 miles NE 9.2 mph - N/A   Scattered Clouds
7:53 PM 77.0°F 64.0°F 64% 30.08 in 10.0 miles ENE 11.5 mph - N/A   Partly Cloudy
8:53 PM 77.0°F 63.0°F 62% 30.08 in 10.0 miles ENE 12.7 mph - N/A   Scattered Clouds
9:53 PM 75.9°F 64.0°F 67% 30.08 in 10.0 miles East 10.4 mph - N/A   Scattered Clouds
10:53 PM 75.9°F 64.0°F 67% 30.08 in 10.0 miles ENE 9.2 mph - N/A   Partly Cloudy
11:53 PM 75.9°F 63.0°F 64% 30.08 in 10.0 miles ENE 9.2 mph - N/A   Scattered Clouds